Showing default

COSMOS 2599, 66649

Orbit data source: Space-Track

COSMOS 2599, 66649 is a payload satellite owned by VVKO VKS (CIS) in LEO that was launched on Tue, 25 Nov 2025 UTC via an ANGARA-1.2 launch vehicle from the Plesetsk Missile And Space Complex (PKMTR). Payload-class satellites include a variety of spacecraft equipped with specific instruments for various scientific and technological missions. These include communications satellites like Starlink; space stations such as the ISS; scientific satellites like the Hubble; Earth observation satellites from companies like Planet Labs, Umbra, and HawkEye 360; GPS; miniature CubeSats for education and research; and military/defense satellites.

Loading next visibility...
Identifier
66649, 2025-273C
Orbit
LEO
Country
Flag of CISCIS
Related business
Manufacturer
Resehetnev ISS
Mission
Operational Defense Communications
Bus & Motor
STRELA-3M, Unknown motor
Mass
280 kg wet, 280 kg dry
Launch date (UTC)
2025-11-25 (7 months ago)
Launch vehicle
ANGARA-1.2
Launch site
Plesetsk Missile And Space Complex (PKMTR)
Object type
Payload
Rocket body
Debris
Shape & HBR
Cyl + 1 Ant, 1.1 m
Radar Cross Section
1.583 m², Large (>1 m²)

Expand to show TLE details & history
Last TLE update: 14 hours ago

TLE from 14 hours ago
0 COSMOS 2599
1 66649U 25273C   26171.24558653  .00000003  00000-0 -49518-4 0  9990
2 66649  82.5024 168.7330 0015506 192.3444 167.7258 12.42896838 25673
Epoch: 2026-06-20T05:53Z
TLE epoch observation values (Epoch: 2026-06-20T05:53:38.676Z)
Latitude
Longitude
171.85888°
Altitude
1,508.978 km
Speed
7.105 km/s
True Right ascension
11h 14m 55s
True Declination
0° 00' 00"
Sunlit
Object was in daylight at epoch
Visualization orbit readout
Latitude
Unknown
Longitude
Unknown
Altitude
Unknown
Speed
Unknown
Apparent Right ascension
Unknown
Apparent Declination
Unknown
Sunlit
N/A
Visualization observer readout
Local Sidereal Time
07:18:26
Azimuth
Unknown
Elevation
Unknown
Doppler factor
Unknown
Orbital elements
Apogee altitude
1,503.901 km
Perigee altitude
1,479.495 km
Semi-major axis
7,869.835 km
Eccentricity
0.00155
Inclination
82.5024°
RAAN
168.733°
Arg. of periapsis
192.3444°
True anomaly
167.7635°
Mean anomaly
167.7258°
Eccentric anomaly
167.74466°
Mean motion
3.10881 °/min
Orbital period
115.8 mins
BSTAR
-0.000049518
Loading maneuver chart data...
Computing Atmospheric mass density...
Loading historical data...
Loading historical data...
Loading historical data...
Loading historical data...
Loading historical data...
Loading historical data...
Loading historical data...
Other satellites on launch #273 in the year 2025 (2025-11-25 UTC)

Documentation

Showing up to 5 results
|